Location: El Hornillo
(40.2499°N, 5.1036°W)
Time: 17:20:48
(UTC+00:00)

Cosmos 1980 Rocket - Pass Details

Date: 05 August 2024
Orbit: 830 x 847 km, 71.0° (Epoch: 19 September)

Event Time Altitude Azimuth Distance (km) Brightness Sun altitude
Exits shadow 23:41:35 37° 46° (NE) 1,282 3.3 -32.2°
Drops below altitude 10° 23:45:04 10° 30° (NNE) 2,468 5.1 -32.3°
Sets 23:47:32 0° 27° (NNE) 3,404 6.0 -32.4°
